Location: Taukkyan
(23.1052°N, 94.0030°E)
Time: 22:23:23
(UTC+00:00)

H-2A R/B - Pass Details

Date: 06 July 2020
Orbit: 733 x 837 km, 98.2° (Epoch: 05 August)

Event Time Altitude Azimuth Distance (km) Brightness Sun altitude
Rises 14:08:37 0° 196° (SSW) 3,342 5.1 -19.6°
Reaches altitude 10° 14:11:22 10° 209° (SSW) 2,423 4.5 -20.1°
Maximum altitude 14:15:40 24° 263° (W) 1,644 4.2 -20.9°
Drops below altitude 10° 14:20:02 10° 316° (NW) 2,448 5.7 -21.7°
Sets 14:22:50 0° 330° (NNW) 3,385 6.5 -22.2°
